Regional Weather Roundup
Issued by NWS

Home | Current Version | Previous Version | Text Only | Print | Product List | Glossary Off
Versions: 1 2 3 4 5 6 7 8 9 10 11 12 13 14 15 16 17 18 19 20 21 22 23 24 25 26 27 28 29 30 31 32 33 34 35 36 37 38 39 40 41 42 43 44 45 46 47 48 49 50

000
ASUS43 KMPX 170910
RWRMN
WEATHER ROUNDUP FOR MINNESOTA
NATIONAL WEATHER SERVICE TWIN CITIES/CHANHASSEN MN
300 AM CST TUE JAN 17 2017


NOTE: "FAIR" INDICATES FEW OR NO CLOUDS BELOW 12,000 FEET WITH NO
SIGNIFICANT WEATHER AND/OR OBSTRUCTIONS TO VISIBILITY. N/A MEANS
CURRENT SKY AND/OR WEATHER CONDITIONS ARE NOT AVAILABLE.

MNZ060>063-068>070-171000-
   Twin Cities Metro

CITY           SKY/WX    TMP DP  RH WIND       PRES   REMARKS
TWIN CITIES    LGT SNOW  31  28  89 NW9       29.94S FOG     WCI  23
ST PAUL        LGT SNOW  31  31 100 NW7       29.95S FOG     WCI  24
CRYSTAL        LGT SNOW  29  23  78 NW6       29.94S WCI  23
BLAINE         MIX PCPN  30  30 100 N7        29.95S WCI  23
LAKEVILLE      LGT SNOW  28  28 100 NW6       29.93R WCI  22
EDEN PRAIRIE   LGT SNOW  30  26  85 N8        29.93S FOG     WCI  22
SOUTH ST PAUL  LGT SNOW  32  32  99 N5        29.93S WCI  27
LAKE ELMO      LGT SNOW  32  32 100 N5        29.94S WCI  27
$$
MNZ001>005-007-008-013>017-022>024-027-028-171000-
   Northwest Minnesota

CITY           SKY/WX    TMP DP  RH WIND       PRES   REMARKS
BEMIDJI        CLOUDY     0  -3  85 CALM      29.96S
HALLOCK        CLOUDY     3   0  85 SE13      29.96F WCI -14
ROSEAU         CLOUDY     0  -6  78 S3        29.98S
WARROAD        CLOUDY     0  -6  78 CALM      29.97F
CROOKSTON      CLOUDY     1   0  92 S5        30.01F WCI  -8
FOSSTON        CLOUDY     0  -2  92 CALM      29.99R
DETROIT LAKES  CLOUDY     3   0  85 CALM      29.99R FOG
MOORHEAD       CLOUDY     0  -4  85 CALM      30.03S
PARK RAPIDS    HAZE       2  -4  76 CALM      29.95F VSB 1/4
MAHNOMEN       FAIR       5   2  88 S3        29.99R
$$
MNZ006-009>011-018-025>026-171000-
   North Central Minnesota

CITY           SKY/WX    TMP DP  RH WIND       PRES   REMARKS
BAUDETTE       CLOUDY    -2  -7  79 CALM      29.96S
FLAG ISLAND    CLOUDY     1  -2  85 SE5       29.96S WCI  -8
INTL FALLS     CLOUDY    -3  -8  79 CALM      29.97S
WASKISH        CLOUDY    -2  -6  84 CALM      29.98R
BIG FORK       CLOUDY     1  -2  85 CALM      29.97F
LONGVILLE      CLOUDY     1  -2  85 CALM      29.98S
GRAND RAPIDS   FOG        7   3  85 CALM      29.99F VSB 3/4
CRANE LAKE     CLOUDY    -2  -6  84 CALM      30.01F
ORR            CLOUDY     3   0  85 CALM      29.95F
COOK           CLOUDY     0  -4  85 CALM      29.98S
WALKER         FAIR       6   3  87 CALM      29.96F
$$
MNZ012-019>021-037-171000-
   Northeast Minnesota

CITY           SKY/WX    TMP DP  RH WIND       PRES   REMARKS
DULUTH         CLOUDY    19  14  81 E5        29.96S WCI  12
ELY            FOG        1  -2  85 CALM      29.98S VSB 1/2
HIBBING        CLOUDY    -1  -5  82 CALM      29.98R
EVELETH        CLOUDY     3  -1  81 CALM      29.99S
DULUTH HARBOR  CLOUDY    21  19  93 CALM      30.01S
TWO HARBORS    CLOUDY    23  18  80 N3        29.97S
SILVER BAY     CLOUDY    16  14  93 CALM      29.98R
GRAND MARAIS     N/A     26  24  92 N5        30.03R WCI  20
G MARAIS ARPRT PTCLDY    16  10  79 CALM      29.97R HAZE
$$
MNZ029>031-032-039>041-046>048-054>057-064-171000-
   West Central Minnesota

CITY           SKY/WX    TMP DP  RH WIND       PRES   REMARKS
FERGUS FALLS   CLOUDY     5   1  85 CALM      30.06R
WHEATON        CLOUDY     9   7  92 W3        30.05R
MORRIS         CLOUDY     7   5  92 N5        29.99F WCI  -2
ALEXANDRIA     CLOUDY     7   5  91 N5        29.97F FOG     WCI  -2
ELBOW LAKE     CLOUDY     3   0  88 CALM      30.01R FOG
WADENA         CLOUDY     1  -2  85 CALM      29.97F FOG
GLENWOOD       CLOUDY    21  19  93 CALM      29.98S FOG
APPLETON       PTCLDY    12   9  85 CALM      30.01F
ORTONVILLE     CLOUDY     7   3  85 CALM      30.02R
MADISON        CLEAR     12   9  85 NW3       30.02F
WILLMAR        CLOUDY    28  27  93 NW7       29.99S FOG     WCI  21
$$
MNZ033>034-036-042>043-049>051-058-059-171000-
   Central Minnesota

CITY           SKY/WX    TMP DP  RH WIND       PRES   REMARKS
ST CLOUD       CLOUDY    28  24  85 N5        29.97S WCI  23
SAUK CENTRE    CLOUDY    24  22  93 CALM      29.98S
PAYNESVILLE    CLOUDY    29  29 100 NW6       29.98S FOG     WCI  23
AITKIN         CLOUDY     3  -2  78 CALM      29.97S
PINE RIVER     CLOUDY     0  -2  92 CALM      30.01F
BRAINERD       FOG       15  14  95 CALM      29.98F VSB 1/4
STAPLES        CLOUDY     1  -2  85 CALM      29.98S FOG
LONG PRAIRIE   CLOUDY    23  21  93 NW5       29.98F FOG     WCI  17
LITTLE FALLS   CLOUDY    28  21  74 CALM      29.99S
LITCHFIELD     CLOUDY    30  27  86 N3        29.97S
BUFFALO        CLOUDY    30  23  76 N7        29.97S WCI  23
MAPLE LAKE     CLOUDY    31  26  83 N7        29.97F WCI  24
HUTCHINSON     CLOUDY    31  26  81 N6        29.97S WCI  26
$$
MNZ037-044-045-052-053-171000-
   East Central Minnesota

CITY           SKY/WX    TMP DP  RH WIND       PRES   REMARKS
PRINCETON      CLOUDY    28  23  80 NW5       29.97S WCI  23
MORA           PTCLDY    23  19  86 CALM      29.99S
CAMBRIDGE      FLURRIES  30  21  69 N3        29.95S
RUSH CITY      CLOUDY    28  23  80 N3        29.97F
MOOSE LAKE     CLOUDY    19  18  93 CALM      29.97S
HINCKLEY       FAIR      28  21  74 N6        29.97F WCI  22
CLOQUET        CLOUDY    18  12  79 CALM      29.97S
MCGREGOR       CLOUDY     9   5  85 CALM      29.99S
$$
MNZ071>073-080-081-089-090-097-098-171000-
   Southwest Minnesota

CITY           SKY/WX    TMP DP  RH WIND       PRES   REMARKS
MONTEVIDEO     CLOUDY    19  18  93 N7        30.02S WCI  10
GRANITE FALLS  CLOUDY    24  22  94 NW8       30.01F FOG     WCI  15
CANBY            N/A     16  11  82 CALM      30.02S
MARSHALL       CLOUDY    20  18  92 NW13      30.00S FOG     WCI   7
REDWOOD FALLS  CLOUDY    25  23  92 NW9       29.98R FOG     WCI  15
OLIVIA         CLOUDY    27  25  93 NW10      29.98R FOG     WCI  17
PIPESTONE      CLOUDY    27  25  93 N6        29.96S FOG     WCI  20
WINDOM         FOG       27  25  93 NW12      29.95S VSB 3/4 WCI  16
WORTHINGTON    CLOUDY    28  27  96 N12       29.96R FOG     WCI  18
JACKSON        CLOUDY    28  28 100 NW9       29.94S FOG     WCI  20
TRACY          CLOUDY    23  22  96 NW8       29.99R WCI  14
SLAYTON        CLOUDY    23  22  98 NW8       29.97R FOG     WCI  13
$$
MNZ065>067-074>077-082>085-091>093-171000-
   South Central Minnesota

CITY           SKY/WX    TMP DP  RH WIND       PRES   REMARKS
MANKATO        LGT SNOW  29  27  92 N10       29.95R FOG     WCI  20
NEW ULM        CLOUDY    28  27  93 N7        29.96R FOG     WCI  21
ST JAMES       CLOUDY    28  28 100 NW9       29.96S FOG     WCI  20
FAIRMONT       FOG       30  28  93 N16       29.94R VSB 3/4 WCI  19
GLENCOE        CLOUDY    31  29  95 N7        29.95S WCI  24
FARIBAULT      MIX PCPN  30  28  93 NW5       29.93R WCI  25
OWATONNA       LGT SNOW  30  28  93 NW5       29.91R WCI  25
WASECA         MIX PCPN  32  32 100 N7        29.93R WCI  26
ALBERT LEA     CLOUDY    32  30  93 N6        29.89S FOG     WCI  26
$$
MNZ078>079-086>088-094>096-171000-
   Southeast Minnesota

CITY           SKY/WX    TMP DP  RH WIND       PRES   REMARKS
ROCHESTER      FRZ RAIN  31  31 100 N10       29.87S FOG     WCI  22
RED WING       MIX PCPN  34  32  93 CALM      29.91S
STANTON        LGT SNOW  32  30  92 N6        29.91R WCI  26
DODGE CENTER   MIX PCPN  30  30 100 CALM      29.88S
WINONA         CLOUDY    34  34 100 NW6       29.90R FOG     WCI  29
AUSTIN         CLOUDY    32  30  93 N5        29.88S FOG     WCI  27
PRESTON        CLOUDY    31  30  96 N5        29.87R FOG     WCI  27
$$
ABBREVIATIONS USED IN REMARKS
   TC - TEMPERATURES IN CELSIUS
  WCI - WIND CHILL INDEX
   HX - HEAT INDEX
  VSB - VISIBILITY
$$




USA.gov is the U.S. government's official web portal to all federal, state and local government web resources and services.